User: anonymous   Login
Location: Unspecified
(0.0000°N, 0.0000°E)
Time: 23:20:08
(UTC+00:00)
Language:

STARLINK-35623 - Orbit

View from above orbital plane
View from above orbital plane
View from above satellite
View from above satellite

Ground track
Ground track

The orbit is defined by the following mean orbital elements,

1 66138U          26145.41345115 +.00000000 +00000-0 +43172-3 0 00009
2 66138  53.1585  43.5010 0000947  90.2761 269.8348 15.30209668    01
Epoch (UTC): 25 May 2026 09:55:22
Eccentricity: 0.0000947
inclination: 53.1585°
perigee height: 475 km
apogee height: 476 km
right ascension of ascending node: 43.5010°
argument of perigee: 90.2761°
revolutions per day: 15.30209668
mean anomaly at epoch: 269.8348°

The dashed part of the orbit path shows where the satellite is in the earth's shadow,  

DLR